Content
SEND FEEDBACK

Daily
Averages
Monthly
Summary
United States of America

PLACERVILLE, CALIFORNIA


Home > North America > United States > California
Elevation: 2590 feet     Latitude: 38 43N     Longitude: 120 45W

WEATHER
 
SELECT A DAY
Number of Records: 94,082;   Date Range: 7/10/09 - 8/18/14
 
SHARE

PRINT THIS DATA

[ ← Previous Day ]
WEATHER ALMANAC - MAY 19, 2013
[ Next Day → ]
[ °C ]   °F
Weather ElementAverageHighLow
Temperature65.5 °F73.4 °F (2:35 pm)55.4 °F (2:55 am)
Dewpoint38.4 °F44.6 °F (11:35 am)26.6 °F (11:15 pm)
Humidity38 %54 % (3:55 am)21 % (11:15 pm)
Barometer30.10 in30.13 in (12:35 am)30.05 in (5:55 pm)
Wind Speed8.6 mph18.4 mph (11:35 pm)
Wind Gust24.2 mph (11:35 pm)
Weather ElementAverage
Visibility10 mi
Wind DirectionSSE (149.3 °)

Weather ElementTotal
Precipitation---
Heating Degree Days0.6 (Base 65)
Growing Degree Days14.4 (Base 50)
Averaged from 67 records on May 19, 2013
WEATHER CONDITIONS BREAKOUT
WIND DIRECTION BREAKOUT
WEATHER BY HOUR - MAY 19, 2013
[ °C ]   °F
Local TimeTemperatureDewpointHumidityBarometerVisibilityWind DirectionWind SpeedGust SpeedPrecipitationEventsConditions
12:35 AM57.2 °F37.4 °F48 %30.13 in10.0 miENE (70°)10.4 mphScattered Clouds
12:55 AM57.2 °F39.2 °F51 %30.13 in10.0 miNE (50°)10.4 mphScattered Clouds
1:15 AM59.0 °F37.4 °F45 %30.13 in10.0 miENE (60°)11.5 mphScattered Clouds
1:35 AM59.0 °F37.4 °F45 %30.13 in10.0 miENE (60°)13.8 mphPartly Cloudy
1:55 AM57.2 °F37.4 °F48 %30.13 in10.0 miNE (40°)10.4 mphScattered Clouds
2:15 AM57.2 °F37.4 °F48 %30.13 in10.0 miNE (50°)11.5 mphScattered Clouds
2:35 AM57.2 °F37.4 °F48 %30.12 in10.0 miENE (60°)12.7 mphScattered Clouds
2:55 AM55.4 °F37.4 °F51 %30.12 in10.0 miENE (60°)11.5 mphMostly Cloudy
3:15 AM55.4 °F37.4 °F51 %30.12 in10.0 miENE (70°)12.7 mphScattered Clouds
3:35 AM55.4 °F37.4 °F51 %30.12 in10.0 miENE (70°)11.5 mphClear
3:55 AM55.4 °F39.2 °F54 %30.11 in10.0 miENE (70°)15.0 mphClear
4:15 AM57.2 °F37.4 °F48 %30.12 in10.0 miENE (60°)15.0 mphClear
4:35 AM55.4 °F37.4 °F51 %30.12 in10.0 miENE (70°)13.8 mphClear
5:15 AM55.4 °F37.4 °F51 %30.11 in10.0 miENE (70°)12.7 mphScattered Clouds
5:35 AM55.4 °F37.4 °F51 %30.11 in10.0 miENE (70°)12.7 mphPartly Cloudy
5:55 AM55.4 °F37.4 °F51 %30.11 in10.0 miENE (70°)13.8 mphClear
6:15 AM55.4 °F37.4 °F51 %30.12 in10.0 miENE (70°)12.7 mphClear
6:35 AM57.2 °F37.4 °F48 %30.12 in10.0 miENE (70°)13.8 mphClear
6:55 AM57.2 °F37.4 °F48 %30.12 in10.0 miEast (80°)9.2 mphClear
7:15 AM57.2 °F37.4 °F48 %30.13 in10.0 miEast (90°)9.2 mphClear
7:55 AM60.8 °F37.4 °F42 %30.13 in10.0 miEast (80°)9.2 mphClear
8:15 AM62.6 °F39.2 °F42 %30.13 in10.0 miENE (70°)5.8 mphClear
8:35 AM64.4 °F39.2 °F40 %30.13 in10.0 miEast (80°)6.9 mphClear
8:55 AM66.2 °F39.2 °F37 %30.13 in10.0 miENE (60°)3.5 mphClear
9:15 AM66.2 °F37.4 °F35 %30.13 in10.0 miNE (50°)6.9 mphClear
9:35 AM66.2 °F37.4 °F35 %30.13 in10.0 miNorth (10°)3.5 mphClear
9:55 AM66.2 °F37.4 °F35 %30.13 in10.0 miNNE (30°)4.6 mphClear
10:15 AM68.0 °F41.0 °F37 %30.13 in10.0 miNW (320°)5.8 mphClear
10:35 AM68.0 °F41.0 °F37 %30.13 in10.0 miWNW (290°)6.9 mphClear
10:55 AM68.0 °F41.0 °F37 %30.13 in10.0 miWNW (300°)8.1 mphClear
11:15 AM68.0 °F39.2 °F35 %30.13 in10.0 miNW (310°)6.9 mphClear
11:35 AM69.8 °F44.6 °F40 %30.12 in10.0 miWest (280°)11.5 mphClear
12:15 PM71.6 °F42.8 °F35 %30.12 in10.0 miWest (280°)6.9 mphClear
12:35 PM69.8 °F41.0 °F35 %30.12 in10.0 miNW (320°)10.4 mphClear
12:55 PM69.8 °F41.0 °F35 %30.11 in10.0 miNNW (330°)6.9 mphClear
1:15 PM71.6 °F41.0 °F33 %30.10 in10.0 miWNW (300°)8.1 mphClear
1:35 PM71.6 °F41.0 °F33 %30.10 in10.0 miNW (310°)8.1 mph17.3 mphClear
1:55 PM71.6 °F41.0 °F33 %30.10 in10.0 miWNW (300°)10.4 mphClear
2:15 PM71.6 °F41.0 °F33 %30.09 in10.0 miWNW (300°)8.1 mph18.4 mphClear
2:35 PM73.4 °F41.0 °F31 %30.09 in10.0 miNW (310°)10.4 mphClear
2:55 PM73.4 °F41.0 °F31 %30.09 in10.0 miNW (310°)9.2 mphClear
3:15 PM73.4 °F41.0 °F31 %30.08 in10.0 miNNW (330°)6.9 mphClear
3:35 PM73.4 °F41.0 °F31 %30.08 in10.0 miNW (310°)11.5 mph16.1 mphClear
3:55 PM73.4 °F41.0 °F31 %30.08 in10.0 miWNW (290°)9.2 mphClear
4:15 PM73.4 °F41.0 °F31 %30.07 in10.0 miWNW (300°)6.9 mph16.1 mphClear
4:35 PM73.4 °F39.2 °F29 %30.07 in10.0 miNW (310°)9.2 mphClear
4:55 PM73.4 °F39.2 °F29 %30.06 in10.0 miWNW (300°)8.1 mphClear
5:15 PM73.4 °F39.2 °F29 %30.06 in10.0 miWNW (300°)8.1 mphClear
5:35 PM73.4 °F39.2 °F29 %30.06 in10.0 miNW (320°)6.9 mphClear
5:55 PM73.4 °F39.2 °F29 %30.05 in10.0 miWNW (300°)6.9 mphClear
6:15 PM73.4 °F39.2 °F29 %30.05 in10.0 miNNW (340°)4.6 mphClear
6:35 PM73.4 °F39.2 °F29 %30.05 in10.0 miWNW (290°)4.6 mphClear
6:55 PM73.4 °F39.2 °F29 %30.05 in10.0 miEast (90°)3.5 mphClear
7:15 PM71.6 °F39.2 °F31 %30.05 in10.0 miCalmClear
7:35 PM71.6 °F39.2 °F31 %30.05 in10.0 miCalmClear
7:55 PM68.0 °F39.2 °F35 %30.06 in10.0 miNorth (10°)3.5 mphClear
8:15 PM68.0 °F39.2 °F35 %30.06 in10.0 miCalmClear
8:35 PM68.0 °F39.2 °F35 %30.06 in10.0 miCalmClear
9:15 PM66.2 °F37.4 °F35 %30.06 in10.0 miCalmClear
9:35 PM66.2 °F37.4 °F35 %30.06 in10.0 miNE (40°)5.8 mphClear
9:55 PM64.4 °F39.2 °F40 %30.06 in10.0 miEast (80°)4.6 mphClear
10:15 PM64.4 °F41.0 °F42 %30.06 in10.0 miNE (40°)8.1 mphClear
10:35 PM62.6 °F39.2 °F42 %30.05 in10.0 miEast (90°)8.1 mphClear
10:55 PM66.2 °F28.4 °F24 %30.05 in10.0 miENE (70°)15.0 mphClear
11:15 PM68.0 °F26.6 °F21 %30.05 in10.0 miENE (70°)16.1 mph19.6 mphClear
11:35 PM66.2 °F26.6 °F23 %30.05 in10.0 miENE (70°)18.4 mph24.2 mphClear
11:55 PM66.2 °F26.6 °F23 %30.05 in10.0 miEast (100°)5.8 mphClear
Hourly data recorded from KPVF, located miles away from Placerville, California







STORIES FROM OUR PARTNERS